Regional Weather Roundup
Issued by NWS Cleveland, OH

Home | Current Version | Previous Version | Text Only | Print | Product List | Glossary Off
Versions: 1 2 3 4 5 6 7 8 9 10 11 12 13 14 15 16 17 18 19 20 21 22 23 24 25 26 27 28 29 30 31 32 33 34 35 36 37 38 39 40 41 42 43 44 45 46 47 48 49 50

440
ASUS41 KCLE 100100
RWRCLE
OHIO REGIONAL WEATHER ROUNDUP
NATIONAL WEATHER SERVICE WILMINGTON, OH
800 PM EST FRI DEC 09 2016

NOTE: "FAIR" INDICATES FEW OR NO CLOUDS BELOW 12,000 FEET WITH NO
SIGNIFICANT WEATHER AND/OR OBSTRUCTIONS TO VISIBILITY.

OHZ001>008-015>018-024>027-034-035-043-044-100200-
   NORTHWEST OHIO

CITY           SKY/WX    TMP DP  RH WIND       PRES   REMARKS
DEFIANCE       CLOUDY    27  18  69 W6        30.48R WCI  20
FINDLAY        CLOUDY    27  19  72 SW10      30.45S WCI  17
TOLEDO EXPRESS CLOUDY    26  20  77 W12       30.44S WCI  16
TOLEDO EXEC    CLOUDY    28  20  71 W13G22    30.45R WCI  17
LIMA           CLOUDY    25  19  78 SW10      30.47R WCI  15
$$

OHZ009>014-019>023-028>033-038-089-100200-
   NORTHEAST OHIO

CITY           SKY/WX    TMP DP  RH WIND       PRES   REMARKS
CLE-HOPKINS    CLOUDY    28  21  75 SW16      30.43S WCI  16
CLE-LAKEFRONT  LGT SNOW  28  24  85 SW13      30.40F VSB 1   WCI  17
CUY CO. ARPT   SNOW      27  27 100 SW14      30.39F VSB 1/4 WCI  15
LORAIN-ELYRIA  LGT SNOW  26  21  81 W14       30.42R WCI  14
ASHTABULA      LGT SNOW  26  23  88 SW10      30.37S FOG     WCI  16
AKRON-CANTON   CLOUDY    25  19  78 SW12      30.40S WCI  14
WOOSTER        NOT AVBL
MANSFIELD      CLOUDY    23  20  88 SW9       30.42R WCI  13
YOUNGSTOWN     FAIR      24  18  77 SW12      30.37S WCI  13
$$

OHZ042-051>053-060>062-070>072-077>081-100200-
  SOUTHWEST OHIO

CITY           SKY/WX    TMP DP  RH WIND       PRES   REMARKS
CINC-COVINGTON CLOUDY    23  14  68 W8        30.55R WCI  14
CINC-LUNKEN    CLOUDY    25  15  66 SW9       30.58S WCI  15
HAMILTON       CLOUDY    26  16  65 W10       30.57R WCI  16
DAYTON         NOT AVBL
WRIGHT-PAT AFB FLURRIES  25  19  80 SW5       30.52R WCI  19
DAYTON GENERAL CLOUDY    25  16  68 W8        30.51R WCI  16
WILMINGTON     CLOUDY    23  16  74 SW13      30.50S WCI  11
$$

OHZ036-037-039>041-045>050-054>059-063>069-073>076-082>088-100200-
  CENTRAL AND SOUTHEAST OHIO

CITY           SKY/WX    TMP DP  RH WIND       PRES   REMARKS
COLUMBUS       FLURRIES  25  22  88 W10       30.50R WCI  15
OSU AIRPORT    CLOUDY    25  18  74 W10       30.49R WCI  15
BOLTON FIELD   NOT AVBL
RICKENBACK AFB NOT AVBL
NEWARK         CLOUDY    26  18  71 W8        30.48R WCI  18
MARION         CLOUDY    25  18  74 W12       30.47R WCI  14
LANCASTER      FLURRIES  25  18  74 SW8       30.50R WCI  16
ZANESVILLE     FLURRIES  27  19  72 SW7       30.47S WCI  19
NEW PHILLY     CLOUDY    26  21  81 SW3       30.46S
$$




USA.gov is the U.S. government's official web portal to all federal, state and local government web resources and services.